LGL278 LFKJ-ELLX

Flight info

Callsign LGL278
Flight time 1h 18m
Altitude 36000
Route LONSU DCT PIGOS DCT BARSO DCT IRMAR DCT VANAS DCT MOLUS DCT MOROK DCT ARPUS DCT GTQ
Aircraft B737/M-SDE2E3FGHIRWXY/LB1

Departure

Time 2026-04-23 16:12
Airport Ajaccio Napoléon Bonaparte airport (LFKJ)

Arrival

Time 2026-04-23 17:31
Airport Luxembourg-Findel International Airport (ELLX)
Time Latitude Longitude Altitude Speed Heading
2026-04-23 15:48 41.91854 8.79504 25 ft 0 kts 345°
2026-04-23 16:07 41.91861 8.79515 31 ft 4 kts 66°
2026-04-23 16:08 41.91863 8.79571 29 ft 9 kts 72°
2026-04-23 16:08 41.91936 8.79632 25 ft 17 kts 25°
2026-04-23 16:08 41.92051 8.79703 27 ft 19 kts 25°
2026-04-23 16:08 41.92159 8.79768 30 ft 17 kts 24°
2026-04-23 16:09 41.92280 8.79846 29 ft 21 kts 25°
2026-04-23 16:09 41.92423 8.79935 25 ft 23 kts 25°
2026-04-23 16:09 41.92568 8.80024 27 ft 22 kts 24°
2026-04-23 16:09 41.92711 8.80111 24 ft 23 kts 25°
2026-04-23 16:10 41.92801 8.80195 29 ft 12 kts 39°
2026-04-23 16:10 41.92861 8.80265 28 ft 11 kts 46°
2026-04-23 16:10 41.92915 8.80343 28 ft 11 kts 47°
2026-04-23 16:10 41.92963 8.80424 30 ft 11 kts 77°
2026-04-23 16:11 41.92947 8.80522 31 ft 11 kts 114°
2026-04-23 16:11 41.92930 8.80567 30 ft 2 kts 124°
2026-04-23 16:11 41.92910 8.80570 30 ft 4 kts 195°
2026-04-23 16:11 41.92880 8.80551 30 ft 9 kts 205°
2026-04-23 16:12 41.92657 8.80412 26 ft 70 kts 205°
2026-04-23 16:12 41.92018 8.80015 20 ft 129 kts 205°
2026-04-23 16:12 41.91074 8.79429 190 ft 160 kts 210°
2026-04-23 16:12 41.90128 8.78693 871 ft 163 kts 216°
2026-04-23 16:13 41.89170 8.77777 1475 ft 171 kts 215°
2026-04-23 16:13 41.87160 8.75968 2728 ft 195 kts 214°
2026-04-23 16:13 41.85947 8.74896 2965 ft 223 kts 215°
2026-04-23 16:14 41.84601 8.73685 3413 ft 240 kts 216°
2026-04-23 16:14 41.83197 8.72410 4184 ft 247 kts 214°
2026-04-23 16:14 41.81761 8.71100 4958 ft 254 kts 213°
2026-04-23 16:14 41.80235 8.69708 5461 ft 274 kts 213°
2026-04-23 16:15 41.78646 8.68234 6239 ft 282 kts 219°
2026-04-23 16:15 41.77535 8.66053 7018 ft 290 kts 254°
2026-04-23 16:15 41.77462 8.63393 7984 ft 287 kts 285°
2026-04-23 16:15 41.78273 8.61001 9016 ft 282 kts 310°
2026-04-23 16:16 41.79712 8.59261 10020 ft 279 kts 332°
2026-04-23 16:16 41.81456 8.58114 10938 ft 281 kts 338°
2026-04-23 16:16 41.83271 8.57080 11767 ft 287 kts 340°
2026-04-23 16:16 41.85107 8.56069 12653 ft 291 kts 341°
2026-04-23 16:17 41.87022 8.55019 13580 ft 296 kts 341°
2026-04-23 16:17 41.88946 8.53987 14441 ft 300 kts 341°
2026-04-23 16:17 41.90871 8.52946 15306 ft 304 kts 341°
2026-04-23 16:17 41.92793 8.51897 16130 ft 306 kts 341°
2026-04-23 16:18 41.94820 8.50774 16915 ft 311 kts 340°
2026-04-23 16:18 41.96830 8.49645 17673 ft 315 kts 340°
2026-04-23 16:18 41.98861 8.48492 18438 ft 319 kts 339°
2026-04-23 16:18 42.00916 8.47317 19089 ft 322 kts 339°
2026-04-23 16:19 42.02984 8.46130 19750 ft 325 kts 339°
2026-04-23 16:19 42.05069 8.44924 20511 ft 328 kts 339°
2026-04-23 16:19 42.07174 8.43703 21314 ft 331 kts 339°
2026-04-23 16:19 42.09300 8.42469 22118 ft 334 kts 339°
2026-04-23 16:20 42.11448 8.41224 22866 ft 339 kts 339°
2026-04-23 16:20 42.13627 8.39960 23612 ft 343 kts 339°
2026-04-23 16:20 42.15835 8.38680 24256 ft 348 kts 339°
2026-04-23 16:20 42.18070 8.37383 24870 ft 352 kts 339°
2026-04-23 16:21 42.20334 8.36068 25503 ft 356 kts 339°
2026-04-23 16:21 42.22620 8.34739 26134 ft 360 kts 339°
2026-04-23 16:21 42.24916 8.33403 26986 ft 355 kts 339°
2026-04-23 16:21 42.27194 8.32075 27573 ft 362 kts 339°
2026-04-23 16:22 42.29565 8.30695 27664 ft 380 kts 339°
2026-04-23 16:22 42.32042 8.29255 27787 ft 395 kts 339°
2026-04-23 16:22 42.34620 8.27752 27864 ft 411 kts 340°
2026-04-23 16:22 42.37260 8.26146 28160 ft 421 kts 336°
2026-04-23 16:23 42.39862 8.24303 28743 ft 423 kts 334°
2026-04-23 16:23 42.42434 8.22352 29303 ft 425 kts 333°
2026-04-23 16:23 42.45015 8.20354 29792 ft 429 kts 333°
2026-04-23 16:23 42.47619 8.18341 30247 ft 433 kts 333°
2026-04-23 16:24 42.50245 8.16323 30656 ft 435 kts 334°
2026-04-23 16:24 42.52882 8.14311 31147 ft 435 kts 333°
2026-04-23 16:24 42.55521 8.12309 31637 ft 434 kts 333°
2026-04-23 16:24 42.58153 8.10319 32148 ft 432 kts 333°
2026-04-23 16:25 42.60749 8.08357 32998 ft 422 kts 333°
2026-04-23 16:25 42.63296 8.06430 33664 ft 417 kts 333°
2026-04-23 16:25 42.65826 8.04518 34154 ft 416 kts 333°
2026-04-23 16:25 42.68357 8.02607 34457 ft 417 kts 332°
2026-04-23 16:26 42.70898 8.00687 34776 ft 418 kts 332°
2026-04-23 16:26 42.73432 7.98769 35154 ft 416 kts 332°
2026-04-23 16:26 42.75963 7.96851 35451 ft 417 kts 332°
2026-04-23 16:26 42.78499 7.94926 35837 ft 415 kts 332°
2026-04-23 16:27 42.81009 7.93017 36181 ft 415 kts 332°
2026-04-23 16:27 42.83552 7.91083 36183 ft 422 kts 332°
2026-04-23 16:27 42.88751 7.87127 36203 ft 434 kts 332°
2026-04-23 16:28 42.94050 7.83085 36190 ft 436 kts 332°
2026-04-23 16:28 42.99301 7.79069 36184 ft 436 kts 332°
2026-04-23 16:29 43.04631 7.74986 36212 ft 442 kts 332°
2026-04-23 16:29 43.09984 7.70875 36194 ft 440 kts 332°
2026-04-23 16:30 43.15316 7.66773 36200 ft 439 kts 332°
2026-04-23 16:30 43.20639 7.62669 36194 ft 441 kts 332°
2026-04-23 16:31 43.26045 7.58492 36209 ft 449 kts 332°
2026-04-23 16:31 43.31405 7.54342 36192 ft 436 kts 332°
2026-04-23 16:32 43.36669 7.50262 36206 ft 435 kts 332°
2026-04-23 16:32 43.41935 7.46171 36190 ft 437 kts 332°
2026-04-23 16:33 43.47248 7.42035 36206 ft 440 kts 332°
2026-04-23 16:33 43.52588 7.37869 36205 ft 443 kts 332°
2026-04-23 16:34 43.57967 7.33663 36200 ft 445 kts 332°
2026-04-23 16:34 43.63368 7.29429 36206 ft 448 kts 332°
2026-04-23 16:35 43.67883 7.25881 36200 ft 450 kts 332°
2026-04-23 16:35 43.73349 7.21584 36190 ft 453 kts 332°
2026-04-23 16:36 43.78832 7.17265 36187 ft 454 kts 332°
2026-04-23 16:36 43.84323 7.12927 36181 ft 455 kts 332°
2026-04-23 16:37 43.89832 7.08566 36187 ft 456 kts 332°
2026-04-23 16:37 43.95345 7.04192 36193 ft 457 kts 332°
2026-04-23 16:38 44.00857 6.99811 36190 ft 457 kts 332°
2026-04-23 16:38 44.06379 6.95409 36179 ft 458 kts 332°
2026-04-23 16:39 44.11928 6.91025 36169 ft 458 kts 336°
2026-04-23 16:39 44.17938 6.88317 36174 ft 453 kts 354°
2026-04-23 16:40 44.24204 6.87374 36177 ft 453 kts 356°
2026-04-23 16:40 44.30493 6.86525 36182 ft 455 kts 356°
2026-04-23 16:41 44.36791 6.85612 36192 ft 455 kts 355°
2026-04-23 16:41 44.43092 6.84658 36187 ft 456 kts 355°
2026-04-23 16:42 44.49406 6.83693 36178 ft 457 kts 355°
2026-04-23 16:42 44.55728 6.82726 36191 ft 457 kts 355°
2026-04-23 16:43 44.62060 6.81756 36189 ft 458 kts 355°
2026-04-23 16:43 44.68396 6.80785 36189 ft 458 kts 355°
2026-04-23 16:44 44.74737 6.79811 36188 ft 459 kts 355°
2026-04-23 16:44 44.81090 6.78870 36159 ft 458 kts 357°
2026-04-23 16:45 44.87453 6.78388 36190 ft 458 kts 359°
2026-04-23 16:45 44.93824 6.78057 36194 ft 458 kts 359°
2026-04-23 16:46 45.00205 6.77686 36178 ft 459 kts 359°
2026-04-23 16:46 45.06590 6.77277 36188 ft 459 kts 359°
2026-04-23 16:47 45.12977 6.76856 36200 ft 460 kts 359°
2026-04-23 16:47 45.19370 6.76435 36192 ft 460 kts 359°
2026-04-23 16:48 45.25761 6.76015 36200 ft 460 kts 359°
2026-04-23 16:48 45.32160 6.75594 36193 ft 460 kts 359°
2026-04-23 16:49 45.38515 6.75175 36194 ft 460 kts 359°
2026-04-23 16:49 45.44913 6.74752 36196 ft 460 kts 359°
2026-04-23 16:50 45.51306 6.74323 36193 ft 460 kts 359°
2026-04-23 16:50 45.57693 6.73888 36194 ft 460 kts 359°
2026-04-23 16:51 45.64092 6.73451 36208 ft 461 kts 359°
2026-04-23 16:51 45.70502 6.73014 36210 ft 462 kts 359°
2026-04-23 16:52 45.76920 6.72575 36198 ft 462 kts 359°
2026-04-23 16:52 45.83330 6.72136 36208 ft 461 kts 360°
2026-04-23 16:53 45.89744 6.71696 36205 ft 462 kts 359°
2026-04-23 16:53 45.96164 6.71254 36224 ft 462 kts 359°
2026-04-23 16:54 46.02598 6.70810 36217 ft 463 kts 360°
2026-04-23 16:54 46.09042 6.70364 36217 ft 464 kts 360°
2026-04-23 16:55 46.15491 6.69917 36221 ft 464 kts 360°
2026-04-23 16:55 46.21956 6.69468 36211 ft 465 kts 360°
2026-04-23 16:56 46.28423 6.69017 36216 ft 466 kts 360°
2026-04-23 16:56 46.34894 6.68565 36218 ft 465 kts 360°
2026-04-23 16:57 46.41364 6.68113 36215 ft 466 kts
2026-04-23 16:57 46.47837 6.67728 36220 ft 465 kts
2026-04-23 16:58 46.54305 6.67592 36223 ft 465 kts
2026-04-23 16:58 46.60777 6.67490 36227 ft 465 kts
2026-04-23 16:59 46.67248 6.67357 36232 ft 465 kts
2026-04-23 16:59 46.73677 6.67205 36239 ft 465 kts
2026-04-23 17:00 46.80153 6.67047 36223 ft 465 kts
2026-04-23 17:00 46.86631 6.66891 36245 ft 466 kts
2026-04-23 17:01 46.93112 6.66735 36252 ft 466 kts
2026-04-23 17:01 46.99599 6.66577 36258 ft 466 kts
2026-04-23 17:02 47.06085 6.66420 36265 ft 466 kts
2026-04-23 17:02 47.12566 6.66263 36241 ft 466 kts
2026-04-23 17:03 47.19032 6.66105 36233 ft 463 kts
2026-04-23 17:03 47.25462 6.65948 36240 ft 461 kts
2026-04-23 17:04 47.31881 6.65791 36230 ft 461 kts
2026-04-23 17:04 47.38285 6.65634 36238 ft 460 kts
2026-04-23 17:05 47.44702 6.65213 36237 ft 464 kts 358°
2026-04-23 17:05 47.51133 6.64140 36234 ft 466 kts 356°
2026-04-23 17:06 47.57592 6.62995 36245 ft 468 kts 357°
2026-04-23 17:06 47.64079 6.61920 36235 ft 469 kts 357°
2026-04-23 17:07 47.70573 6.60891 36247 ft 469 kts 357°
2026-04-23 17:07 47.77022 6.59880 36248 ft 469 kts 358°
2026-04-23 17:08 47.83506 6.58859 36248 ft 469 kts 358°
2026-04-23 17:08 47.89988 6.57835 36257 ft 468 kts 358°
2026-04-23 17:09 47.96467 6.56806 36243 ft 468 kts 358°
2026-04-23 17:09 48.02933 6.55776 36253 ft 467 kts 358°
2026-04-23 17:10 48.09397 6.54745 36267 ft 467 kts 358°
2026-04-23 17:10 48.15851 6.53713 36269 ft 466 kts 358°
2026-04-23 17:11 48.22304 6.52679 36273 ft 466 kts 358°
2026-04-23 17:11 48.28750 6.51643 36264 ft 466 kts 358°
2026-04-23 17:12 48.31982 6.51123 35947 ft 471 kts 358°
2026-04-23 17:12 48.35255 6.50598 35184 ft 473 kts 358°
2026-04-23 17:12 48.38524 6.50070 34382 ft 473 kts 358°
2026-04-23 17:12 48.41796 6.49541 33422 ft 474 kts 358°
2026-04-23 17:13 48.45076 6.49010 32462 ft 474 kts 358°
2026-04-23 17:13 48.48361 6.48477 31488 ft 475 kts 358°
2026-04-23 17:13 48.51658 6.47942 30541 ft 477 kts 358°
2026-04-23 17:13 48.54935 6.47408 29777 ft 471 kts 358°
2026-04-23 17:14 48.58175 6.46878 28983 ft 465 kts 357°
2026-04-23 17:14 48.61369 6.46355 28256 ft 458 kts 357°
2026-04-23 17:14 48.64517 6.45840 27534 ft 452 kts 357°
2026-04-23 17:14 48.67629 6.45331 26822 ft 447 kts 357°
2026-04-23 17:15 48.70700 6.44829 26107 ft 442 kts 357°
2026-04-23 17:15 48.73738 6.44332 25416 ft 437 kts 356°
2026-04-23 17:15 48.76701 6.43847 24736 ft 432 kts 356°
2026-04-23 17:15 48.79678 6.43360 24040 ft 428 kts 356°
2026-04-23 17:16 48.82626 6.42876 23232 ft 425 kts 356°
2026-04-23 17:16 48.85545 6.42396 22496 ft 419 kts 356°
2026-04-23 17:16 48.88422 6.41923 21790 ft 413 kts 356°
2026-04-23 17:16 48.91259 6.41455 21073 ft 408 kts 355°
2026-04-23 17:17 48.94063 6.40992 20384 ft 402 kts 355°
2026-04-23 17:17 48.96828 6.40535 19702 ft 397 kts 355°
2026-04-23 17:17 48.98681 6.40229 19243 ft 394 kts 355°
2026-04-23 17:17 49.02266 6.39636 18299 ft 389 kts 355°
2026-04-23 17:18 49.07589 6.38753 16834 ft 380 kts 355°
2026-04-23 17:18 49.10199 6.38319 16160 ft 375 kts 355°
2026-04-23 17:18 49.12775 6.37891 15490 ft 370 kts 355°
2026-04-23 17:19 49.15322 6.37467 14834 ft 366 kts 355°
2026-04-23 17:19 49.17839 6.37047 14184 ft 362 kts 355°
2026-04-23 17:19 49.20332 6.36631 13470 ft 358 kts 355°
2026-04-23 17:19 49.22796 6.36220 12775 ft 355 kts 355°
2026-04-23 17:20 49.25238 6.35812 12113 ft 351 kts 355°
2026-04-23 17:20 49.30044 6.35008 10850 ft 345 kts 355°
2026-04-23 17:21 49.34579 6.34246 10539 ft 312 kts 355°
2026-04-23 17:21 49.36690 6.33891 10396 ft 298 kts 355°
2026-04-23 17:21 49.40663 6.32985 9816 ft 286 kts 349°
2026-04-23 17:22 49.42595 6.32329 9405 ft 284 kts 349°
2026-04-23 17:22 49.46402 6.31059 8605 ft 280 kts 349°
2026-04-23 17:23 49.49406 6.29285 7926 ft 282 kts 320°
2026-04-23 17:23 49.50542 6.26851 7534 ft 284 kts 293°
2026-04-23 17:23 49.50222 6.19944 6612 ft 286 kts 250°
2026-04-23 17:24 49.49538 6.17070 6181 ft 286 kts 250°
2026-04-23 17:24 49.48862 6.14209 5781 ft 282 kts 250°
2026-04-23 17:24 49.47789 6.09563 5218 ft 263 kts 251°
2026-04-23 17:25 49.47117 6.04429 4954 ft 241 kts 286°
2026-04-23 17:25 49.47867 6.02186 4886 ft 237 kts 313°
2026-04-23 17:26 49.50520 5.99358 4700 ft 234 kts 333°
2026-04-23 17:26 49.53500 5.97780 4176 ft 216 kts 15°
2026-04-23 17:27 49.55229 6.00897 3768 ft 191 kts 65°
2026-04-23 17:27 49.55813 6.02670 3527 ft 180 kts 60°
2026-04-23 17:27 49.56407 6.04291 3283 ft 166 kts 59°
2026-04-23 17:27 49.56963 6.05794 3066 ft 158 kts 59°
2026-04-23 17:28 49.57499 6.07245 2865 ft 155 kts 59°
2026-04-23 17:28 49.58038 6.08699 2653 ft 156 kts 58°
2026-04-23 17:28 49.58569 6.10139 2465 ft 154 kts 59°
2026-04-23 17:28 49.59073 6.11505 2236 ft 139 kts 58°
2026-04-23 17:29 49.59528 6.12735 2065 ft 129 kts 58°
2026-04-23 17:29 49.59971 6.13929 1894 ft 128 kts 59°
2026-04-23 17:29 49.60859 6.16328 1560 ft 130 kts 59°
2026-04-23 17:30 49.61315 6.17567 1370 ft 132 kts 60°
2026-04-23 17:30 49.62157 6.19838 1211 ft 101 kts 59°
2026-04-23 17:30 49.62444 6.20616 1245 ft 64 kts 59°
2026-04-23 17:31 49.62622 6.21036 1241 ft 38 kts 45°
2026-04-23 17:31 49.62774 6.21209 1240 ft 24 kts 30°
2026-04-23 17:31 49.62879 6.21304 1243 ft 16 kts 28°
2026-04-23 17:31 49.62960 6.21340 1237 ft 6 kts
2026-04-23 17:32 49.63003 6.21351 1237 ft 6 kts
2026-04-23 17:32 49.63043 6.21330 1241 ft 6 kts 341°
2026-04-23 17:32 49.63084 6.21325 1246 ft 6 kts 13°
2026-04-23 17:32 49.63110 6.21373 1241 ft 6 kts 61°
2026-04-23 17:33 49.63128 6.21424 1248 ft 3 kts 60°
2026-04-23 17:33 49.63131 6.21431 1245 ft 0 kts 60°